Helicity
1 7 4 -0 -0 -0 -12 -3 14 40 48 68 46 39 41 58 79 111 88 79 160 208 68 156 205 315 223 187 88 125 97 108 62 142 62 47 29 76 56 81 67 38 43 43 30 37 54 177 103 150 128 104 119 172
1 -0 -4 -5 -1 3 4 4 13 29 29 39 39 30 30 37 68 81 105 53 74 150 206 73 105 151 196 288 295 143 120 125 138 100 70 92 84 70 86 81 69 114 133 139 146 138 117 174 218 194 222 186 170 136
-0 -3 -6 -11 -16 -19 -15 -0 3 12 13 10 13 15 11 17 34 43 66 41 71 114 44 18 52 145 132 141 165 338 135 193 138 161 175 124 126 175 58 64 88 84 138 158 113 33 52 63 111 180 150 152 156 141
-1 -9 -10 -16 -26 -42 -34 -25 -13 -7 -7 -10 -9 3 -3 17 37 57 68 52 89 100 116 82 37 95 127 128 193 225 135 94 139 149 160 143 128 122 114 104 173 117 94 200 152 174 126 39 89 136 138 145 166 148
-5 -11 -7 7 10 -18 -24 -20 -23 -29 -38 -29 -27 -24 6 32 41 40 26 42 62 150 118 64 48 46 68 145 181 208 123 138 133 114 115 112 149 161 117 160 143 184 284 242 236 228 246 285 237 152 172 147 126 97
40 33 26 29 30 18 2 -7 -14 -34 -1 -9 -21 23 24 31 52 107 32 24 87 135 75 174 77 79 89 110 124 180 196 124 137 150 174 180 170 163 128 130 172 137 205 221 277 220 210 166 178 189 172 147 133 138
46 38 33 24 25 26 19 22 22 34 56 39 26 36 58 91 112 49 50 77 89 116 141 112 80 47 119 82 105 105 135 201 147 135 151 127 74 132 151 198 203 164 141 123 128 151 168 184 170 162 125 126 108 106
46 42 29 17 14 24 23 24 27 38 44 38 53 62 86 90 89 79 47 67 111 104 57 86 88 69 149 109 76 117 115 98 185 95 69 105 59 129 185 252 221 142 89 119 144 104 126 137 136 132 139 122 109 95
64 49 25 10 10 20 30 30 33 40 48 62 95 79 74 107 71 57 119 162 86 98 78 66 108 115 86 96 92 90 121 112 131 88 99 124 101 220 242 209 188 147 141 141 127 107 106 109 105 87 77 79 87 91
62 55 41 27 10 12 29 29 48 62 38 80 106 118 39 35 59 119 62 98 56 31 73 116 143 79 184 73 111 102 168 114 54 105 135 139 136 96 106 87 64 55 40 35 42 48 47 40 46 50 63 74 84 75
49 41 45 33 12 2 13 30 69 51 57 63 90 27 26 44 67 82 47 28 42 39 53 109 91 135 104 221 81 177 110 117 97 74 96 53 62 63 44 54 54 35 26 28 39 36 35 34 38 44 48 55 64 68
31 33 57 56 21 12 17 21 67 35 -8 16 35 59 53 42 67 55 24 20 31 55 48 79 73 95 86 167 160 129 90 98 96 60 95 72 21 35 51 36 6 1 6 20 6 11 11 21 31 36 37 36 47 60
38 34 53 72 48 32 25 26 35 32 54 49 43 18 21 30 30 24 44 40 46 55 60 96 78 106 92 151 119 139 110 81 63 81 67 25 10 11 -2 -27 -19 -21 -29 -4 2 -22 -16 -16 -13 -2 10 23 29 63
45 51 75 77 46 42 52 40 45 55 63 41 53 56 56 40 31 39 48 41 47 52 86 108 92 99 128 158 191 108 88 82 56 54 38 1 4 9 4 -12 -22 -13 -6 -14 -19 -20 -12 -15 -6 4 24 38 47 44
52 66 87 95 41 59 73 65 62 53 25 25 48 75 59 73 70 72 68 56 44 81 139 114 133 132 168 170 144 95 80 66 39 8 -5 6 23 31 15 -11 -21 -24 -24 -24 -24 -26 -35 -40 -16 -16 -11 30 28 2
38 62 95 50 73 86 102 108 108 104 118 94 58 59 73 105 79 77 72 71 53 113 133 174 200 164 122 109 82 85 63 35 -1 5 7 12 6 -1 -16 -20 -42 -43 -30 -36 -35 -37 -50 -87 -70 -65 -18 24 25 28
46 73 6 30 92 121 175 125 157 118 90 79 84 81 85 102 111 112 104 96 87 93 84 134 117 108 145 101 88 56 28 11 4 -9 -7 8 12 -2 -8 -32 -54 -40 -40 -54 -28 -15 -29 -49 -79 -46 16 104 104 69
82 44 15 41 81 137 159 145 104 85 68 95 110 110 100 101 104 103 112 124 120 138 179 169 142 112 61 53 32 13 11 26 41 23 5 15 19 -21 -23 -42 -50 -29 -17 -29 3 8 15 -28 -84 -65 -15 62 49 35
65 73 65 69 40 63 56 122 92 54 67 65 84 100 112 102 119 125 119 108 113 118 104 99 17 14 -22 26 -5 -5 15 22 21 16 -11 -8 -2 3 3 -22 -26 16 -13 -1 7 12 -4 -4 -23 -75 -63 -46 28 51
110 111 102 63 62 68 63 60 70 64 52 49 68 39 26 32 52 75 65 92 107 88 32 13 -8 -13 -21 -7 20 33 21 18 24 9 -7 -13 -2 12 10 20 18 9 6 -8 20 8 6 -5 -29 -45 -83 -97 -71 -7
122 97 101 98 77 36 20 42 39 14 34 36 59 39 40 48 37 30 47 69 -4 5 22 12 10 24 23 23 28 7 4 1 -5 -13 -16 -12 -6 20 -1 31 -8 16 10 -8 2 1 -1 -6 -31 -30 -63 -105 -124 -92
31 56 58 65 52 50 32 9 2 27 60 35 29 31 26 8 -3 -5 22 16 29 20 12 17 26 21 14 -6 1 1 -4 -10 -5 2 21 35 16 26 -2 23 17 21 12 13 8 4 3 -13 -24 -43 -41 -44 -72 -90
45 33 25 29 53 38 36 36 44 40 43 26 47 17 12 4 11 29 24 26 8 -24 -18 -22 -14 -16 -7 24 16 17 6 -8 10 23 18 7 -0 -16 47 48 12 38 17 10 25 14 11 15 25 -3 -28 -49 -48 -72
34 5 10 18 29 33 33 34 38 44 48 32 35 34 23 13 17 13 22 14 -22 -16 -16 -21 -22 -15 7 -0 8 12 4 6 21 26 25 21 26 23 8 15 35 32 14 7 19 16 20 25 23 16 9 -3 -40 -53
13 15 17 18 25 38 33 42 38 38 32 35 44 51 25 27 19 18 9 24 -2 4 2 -0 3 -9 -18 23 11 18 17 7 19 39 16 16 19 8 10 17 21 26 26 25 20 10 14 20 30 26 27 6 1 -13
21 31 30 26 37 24 29 18 31 35 39 31 60 60 36 24 26 29 11 9 -0 2 3 20 14 11 19 22 28 13 10 18 1 52 21 22 18 10 13 21 25 20 25 23 24 7 12 17 19 12 17 12 -1 8
20 37 32 18 22 37 36 30 17 17 29 37 50 33 39 39 30 30 22 13 9 22 49 70 46 41 24 10 14 10 9 26 22 14 31 24 23 21 15 23 32 12 22 17 16 16 14 11 5 3 2 25 -0 -6
33 22 32 47 46 37 44 35 23 16 34 33 40 46 39 23 16 9 13 19 26 47 26 30 25 52 46 66 34 15 4 18 15 1 -4 15 23 21 13 22 46 75 92 78 44 44 11 11 3 10 20 15 21 25
37 32 30 47 51 63 49 17 17 25 14 24 47 52 49 25 17 8 15 33 30 4 9 10 22 21 6 56 41 26 21 8 12 21 20 25 14 20 15 17 28 26 11 49 80 65 41 50 45 26 15 27 23 14
43 37 27 36 32 59 68 14 35 17 10 27 26 22 29 29 31 11 8 -0 10 16 3 15 17 -10 -2 -12 30 37 55 49 46 36 27 28 16 18 21 18 21 24 28 25 23 29 48 24 32 26 28 38 41 30
25 22 25 24 39 42 48 24 4 -7 -1 16 -8 11 29 -13 18 45 11 5 17 10 -3 8 7 -2 -1 -5 4 12 15 2 17 39 51 24 -3 3 3 16 18 19 16 16 23 23 35 35 15 14 27 31 96 101
16 12 24 27 30 28 30 9 2 4 -7 25 27 22 17 14 18 20 63 8 9 9 40 20 12 18 19 7 22 40 71 42 70 51 34 35 29 20 17 14 -12 -5 10 10 11 29 38 48 41 38 12 12 75 58
23 26 38 50 40 20 15 7 12 7 18 22 11 17 -3 -6 2 51 65 29 8 12 15 20 22 24 41 35 44 28 37 37 121 99 53 60 59 54 59 35 25 22 2 -3 -7 5 19 26 30 91 87 55 47 21
Wind_Speed
68 69 68 68 67 63 57 53 54 53 53 54 48 44 46 49 47 43 38 36 41 48 41 42 43 47 47 49 47 34 44 50 47 62 64 54 54 40 49 34 46 45 55 62 68 74 68 51 41 44 36 37 44 47
67 67 68 68 66 61 56 54 54 52 52 49 45 45 47 48 45 40 39 34 38 45 45 39 42 41 44 43 44 39 41 39 38 51 51 48 48 39 47 50 38 47 39 41 41 33 26 31 26 32 38 39 46 48
66 67 67 67 65 60 57 54 53 50 49 49 47 46 47 44 40 36 36 35 37 45 43 37 34 35 36 40 42 46 42 37 36 34 36 35 36 40 40 45 31 36 45 46 42 30 29 30 34 40 42 45 49 52
63 65 66 65 62 60 56 52 52 51 50 48 46 46 42 40 38 35 33 33 35 41 39 33 29 32 31 30 35 38 33 37 37 40 43 42 45 44 44 38 43 37 40 42 42 36 47 37 44 51 51 53 57 59
57 57 44 24 17 53 52 50 50 50 46 45 43 42 40 37 36 36 30 26 28 32 33 25 17 21 23 27 29 33 36 38 41 42 45 47 39 41 38 40 38 40 41 42 41 41 47 50 57 57 58 65 67 69
7 6 9 4 9 25 34 38 39 39 25 30 30 35 35 35 34 35 23 20 25 33 27 34 26 24 22 22 23 27 32 34 37 37 36 37 33 42 39 36 32 33 40 44 50 53 58 60 57 62 67 71 73 76
8 5 3 4 14 18 22 22 17 9 13 19 25 25 24 29 31 32 32 32 32 33 30 30 33 29 28 24 22 22 22 28 28 31 34 32 30 36 36 36 39 43 47 52 52 61 66 63 72 73 75 76 77 78
11 9 10 14 12 17 17 16 12 10 15 23 26 26 28 29 29 33 24 28 33 37 30 31 34 30 28 29 27 27 25 23 29 29 30 29 23 28 33 40 45 47 51 52 57 62 68 73 76 77 78 81 82 81
18 15 13 11 11 11 11 11 9 12 19 25 25 29 32 33 33 28 28 30 32 33 29 26 33 35 31 27 24 23 28 23 27 25 26 32 28 32 38 44 48 52 58 63 68 71 75 78 80 81 82 82 84 84
19 16 15 15 16 13 7 10 11 14 24 27 32 36 36 33 30 34 37 33 35 26 24 20 28 28 32 30 26 23 25 27 24 23 27 16 25 29 42 49 52 56 61 66 73 77 79 82 84 87 90 92 92 90
22 23 28 31 22 15 14 15 14 23 34 36 34 40 32 34 37 36 35 29 25 28 27 28 25 28 29 26 23 27 24 28 26 25 30 25 26 43 47 47 50 56 61 67 68 72 76 81 85 88 91 92 93 94
27 30 33 30 24 22 20 19 17 32 36 34 33 32 30 29 29 30 30 27 27 29 29 31 28 29 29 30 28 25 22 27 24 23 29 28 35 39 45 51 53 56 59 62 65 70 74 77 81 86 91 94 95 96
27 31 31 27 17 21 23 23 25 29 31 34 32 30 29 27 28 31 26 26 29 27 25 26 32 31 32 33 27 32 26 19 21 24 24 26 30 40 47 50 55 57 61 64 68 72 75 81 83 86 92 92 95 98
27 31 30 29 16 21 20 22 25 30 33 35 35 33 30 31 29 29 27 30 27 27 28 28 30 30 29 30 29 24 21 24 23 22 26 29 36 45 48 51 55 60 63 67 70 75 80 84 89 90 93 92 91 90
25 32 30 28 19 17 20 24 28 31 30 34 34 40 37 33 30 28 27 31 29 35 34 34 30 29 25 23 22 20 22 22 22 22 25 34 43 47 49 53 58 61 64 67 72 77 82 89 95 98 95 92 87 87
25 32 33 19 18 23 26 32 40 41 40 38 36 42 32 35 32 29 29 32 28 33 35 37 38 33 23 25 21 21 21 21 26 29 36 42 44 45 49 53 58 63 65 67 71 76 80 89 94 92 88 83 81 80
20 37 18 17 21 32 34 38 41 44 43 41 39 36 36 40 37 32 30 28 26 34 40 36 35 28 27 25 23 23 25 28 32 35 38 40 44 46 49 53 59 62 65 67 71 75 81 89 92 90 87 82 80 78
36 28 20 22 27 39 48 45 51 52 54 45 46 44 47 44 42 40 34 31 34 37 36 35 31 25 26 27 22 23 28 30 31 34 37 36 32 48 52 56 61 66 70 71 74 73 78 87 93 92 88 85 83 80
25 24 23 23 31 37 41 42 45 58 56 53 50 49 49 45 40 37 35 34 35 36 43 35 15 11 13 23 20 27 29 32 36 36 37 44 47 48 49 56 59 64 71 72 74 73 77 78 88 95 95 93 88 83
28 28 23 31 35 36 43 44 42 46 50 48 47 51 49 49 47 46 51 45 41 37 32 17 13 20 28 23 19 20 22 25 36 42 46 51 49 50 51 58 59 63 71 71 72 75 75 78 84 89 94 96 97 92
32 30 27 35 40 40 43 41 42 41 41 46 47 46 45 51 54 53 36 37 54 52 48 47 40 18 34 25 21 37 38 39 42 48 52 54 54 53 53 58 60 66 71 72 74 76 75 73 80 81 91 94 95 96
25 21 32 35 34 39 42 38 40 41 38 40 40 40 43 46 49 51 34 20 38 40 41 34 19 10 15 44 44 46 50 49 43 42 39 43 49 50 54 58 63 65 69 68 72 73 73 76 78 80 83 88 92 97
20 28 30 31 34 38 40 35 36 36 39 40 41 43 44 44 41 33 43 13 20 47 33 35 39 47 34 32 45 52 53 53 52 53 57 58 56 58 60 62 63 63 68 70 67 70 72 74 75 79 83 82 86 90
29 29 30 31 34 35 35 35 35 35 36 37 41 38 36 37 37 40 43 35 26 46 44 44 44 46 48 49 54 56 54 58 57 57 59 61 61 60 60 61 61 64 66 68 67 69 71 72 74 76 81 84 83 84
29 31 29 31 30 31 33 34 33 34 38 38 39 40 37 33 33 39 42 49 42 32 43 46 48 43 39 35 53 54 56 54 55 53 57 57 57 56 61 62 63 63 67 66 65 67 65 69 70 77 77 82 85 84
28 27 28 30 30 31 33 32 34 33 35 34 37 36 33 31 36 37 38 33 18 10 21 17 13 13 35 38 27 50 60 60 50 52 53 56 60 62 64 65 65 61 64 62 60 69 71 68 69 72 76 77 80 81
28 26 26 26 27 30 29 31 30 30 35 36 35 32 33 34 35 36 39 32 23 16 16 20 29 28 32 20 18 35 46 52 44 32 49 55 54 56 58 61 62 57 55 65 65 66 69 72 72 75 74 72 75 79
28 24 22 25 26 26 26 26 27 30 33 34 32 34 32 29 27 28 29 28 20 16 11 14 23 28 24 41 18 33 35 20 42 39 38 45 52 54 53 55 56 44 46 55 61 66 62 69 70 70 72 73 74 75
23 23 22 24 25 27 27 27 27 30 31 30 33 34 34 34 32 27 25 20 19 15 12 10 11 20 29 36 30 42 36 23 30 34 36 35 46 49 46 46 49 51 48 49 48 62 61 45 61 69 72 71 72 76
24 22 21 23 24 28 29 28 29 31 33 38 37 35 33 33 32 25 20 19 18 17 14 12 14 18 16 21 33 33 31 35 40 35 30 22 37 38 36 37 39 40 43 41 42 48 56 57 63 65 68 70 69 71
23 20 20 24 31 33 29 28 28 27 25 28 28 25 27 22 29 31 23 18 18 17 18 13 17 29 21 26 33 29 26 37 42 39 36 19 27 31 25 29 40 40 37 30 35 42 51 55 44 39 54 63 70 68
19 19 19 23 28 27 29 28 28 28 26 27 26 28 26 26 25 27 30 17 18 20 31 21 22 31 35 24 36 39 29 29 39 37 35 29 26 25 20 21 26 26 37 33 40 44 45 48 43 44 46 55 62 53
21 18 18 23 25 27 27 26 27 25 24 26 26 26 34 30 28 31 32 28 22 19 23 24 28 30 32 32 36 30 28 38 41 41 39 37 30 24 19 26 28 28 27 33 33 40 45 46 49 56 55 51 51 48
Wind_Direction
354 348 343 342 344 341 343 346 343 338 332 326 331 333 330 324 316 304 297 296 283 269 283 271 269 258 255 252 251 252 250 246 243 239 240 245 251 261 254 274 259 259 256 258 259 259 262 294 300 291 306 313 315 317
359 357 352 346 344 344 350 346 342 343 341 338 343 338 333 329 322 314 299 301 289 268 281 276 269 265 258 259 261 255 252 250 252 240 245 253 249 268 256 257 270 262 274 275 283 292 309 320 331 323 316 316 314 314
0 356 353 350 343 343 345 352 351 351 346 344 342 341 337 338 329 318 308 303 284 270 267 261 254 264 267 261 260 252 253 258 255 257 257 258 254 265 255 261 275 280 282 274 284 294 301 312 319 316 314 313 310 310
5 358 347 352 342 350 1 4 360 355 352 347 348 345 348 330 313 309 312 306 277 271 258 251 263 262 266 267 260 259 260 257 258 257 255 258 258 260 268 276 271 291 289 282 283 298 290 301 307 307 307 308 307 307
12 9 316 326 336 15 14 15 10 5 7 2 357 355 327 314 301 291 314 309 285 262 248 240 247 264 268 265 263 261 255 254 252 253 255 257 266 267 274 279 283 295 292 287 291 304 299 299 304 305 304 302 302 302
344 306 280 269 69 57 49 41 38 38 68 58 61 292 295 293 277 245 316 301 268 240 246 236 250 255 264 268 265 262 258 254 253 254 261 266 280 269 273 276 292 302 302 299 292 300 300 300 305 306 304 303 302 300
6 335 340 81 69 71 68 70 83 175 205 143 123 142 175 211 212 222 242 241 241 238 246 237 237 248 258 258 262 263 267 252 253 254 263 271 274 272 277 287 295 302 305 302 301 303 298 302 300 303 302 302 301 300
27 39 58 68 84 80 82 83 102 178 189 145 139 151 170 192 198 188 246 240 230 221 234 238 231 233 253 241 246 258 252 259 259 260 262 271 278 280 282 298 302 307 309 309 308 307 303 302 301 301 302 301 300 299
37 45 57 75 96 101 102 98 132 164 174 147 150 151 151 161 174 193 208 208 213 223 235 235 223 223 239 241 240 248 250 257 264 262 261 270 275 284 302 306 307 309 307 306 306 304 303 301 301 301 301 301 299 298
39 47 60 76 92 103 136 133 143 175 150 154 143 132 144 159 176 182 184 202 203 231 236 238 235 219 231 227 236 241 251 248 257 267 276 285 297 312 310 308 309 311 310 309 304 303 303 302 303 301 299 298 297 296
52 61 67 70 80 101 128 136 151 142 135 131 136 129 151 150 148 156 181 198 218 209 217 216 214 211 220 226 230 250 248 249 251 264 268 287 294 309 312 314 317 315 314 314 313 311 310 307 306 305 303 301 299 297
60 63 66 70 84 104 120 133 152 125 121 138 145 152 159 155 170 177 179 198 200 200 205 200 208 213 219 223 232 240 253 258 267 271 287 291 306 310 311 313 317 322 323 325 324 321 318 317 315 311 308 304 301 296
66 65 70 79 95 113 120 128 141 140 138 132 138 143 146 158 153 162 180 187 189 200 208 208 198 207 211 219 227 228 247 263 258 285 296 305 312 309 314 318 322 326 327 329 328 323 323 319 318 316 313 311 305 298
71 77 84 91 96 119 130 133 140 137 133 125 128 127 138 142 150 158 167 174 190 196 200 202 201 204 210 216 225 234 244 257 271 278 285 301 315 314 319 326 329 329 331 331 330 327 328 330 327 325 321 318 313 307
82 87 91 95 107 119 127 128 133 134 140 129 127 120 125 140 148 158 169 167 175 175 177 182 189 195 211 220 237 246 251 254 267 281 304 314 310 312 317 325 329 329 330 332 334 332 331 330 329 325 323 320 316 308
94 98 94 96 114 116 117 117 111 117 123 126 125 125 134 133 136 147 156 161 174 176 176 175 174 183 201 212 235 245 248 269 269 274 277 287 300 308 313 316 319 329 333 332 333 334 333 332 330 326 323 321 321 319
108 91 101 110 114 111 109 111 109 108 114 119 120 121 124 127 129 140 151 163 184 175 166 173 173 183 191 203 219 236 240 242 267 273 277 276 287 297 305 312 319 325 327 328 335 340 341 338 337 335 331 326 321 320
97 107 116 121 116 109 102 101 100 101 103 109 112 115 115 117 116 119 128 141 150 156 161 162 178 184 187 184 219 273 267 254 245 262 280 279 264 318 329 326 332 345 338 335 345 348 348 344 344 343 337 331 329 330
112 118 125 126 120 116 110 105 106 97 101 106 109 113 111 108 112 121 129 136 141 144 135 150 207 238 274 171 251 309 302 305 302 292 294 318 335 356 2 358 356 356 349 349 353 355 353 356 357 355 352 347 340 332
110 111 119 123 122 115 106 105 108 107 102 103 106 102 103 103 107 109 106 114 121 128 137 177 284 312 333 301 225 210 246 257 294 309 321 339 357 5 1 2 3 358 355 354 357 355 356 357 359 360 359 356 353 347
109 104 118 116 109 104 100 102 101 104 104 99 96 96 98 90 86 90 115 113 82 80 90 78 88 168 94 113 131 57 49 38 16 354 338 345 356 358 0 359 359 357 356 356 357 355 357 360 358 360 359 0 358 357
126 128 115 110 112 98 93 102 104 102 101 97 94 93 89 84 73 60 106 119 96 85 78 87 260 206 257 349 2 0 354 346 25 24 29 21 10 9 9 6 1 359 359 3 0 358 359 360 359 356 356 359 1 2
157 117 107 101 97 90 88 100 93 92 84 84 85 80 78 75 79 102 73 169 6 18 345 342 342 10 9 68 41 11 1 5 8 1 350 356 4 5 359 359 360 3 359 359 4 3 2 3 6 4 2 0 359 1
74 80 78 83 85 86 89 86 87 86 82 79 71 73 77 78 81 76 61 64 312 7 355 341 335 342 16 0 14 12 344 357 7 6 4 2 5 7 6 5 8 4 2 359 4 6 5 7 10 9 5 3 1 360
33 32 58 62 75 76 70 71 74 72 65 66 62 63 69 77 77 63 56 27 56 309 328 332 346 334 329 62 19 24 19 21 18 21 16 14 18 20 15 11 9 12 10 13 15 15 16 13 11 8 10 8 4 6
27 40 37 37 45 44 42 47 53 61 58 59 57 64 74 80 70 69 69 79 122 215 283 260 234 160 67 57 71 34 17 16 39 35 36 29 21 16 13 14 16 21 20 22 24 14 14 17 14 10 8 12 10 11
24 41 50 53 54 48 55 53 61 67 60 58 59 68 75 77 78 78 65 86 109 117 116 110 90 92 81 93 97 68 48 40 54 67 42 33 36 35 31 26 26 28 31 25 23 21 19 15 14 8 6 13 10 5
1 42 52 56 50 56 65 72 79 72 63 60 72 72 87 106 121 108 99 101 120 138 163 158 115 99 100 64 109 77 70 77 56 57 58 52 45 40 38 35 35 47 46 37 33 27 26 22 21 21 19 16 14 14
6 15 44 49 57 59 73 83 87 70 77 80 79 82 85 93 101 119 119 146 160 180 189 201 177 121 97 82 86 64 57 69 65 61 61 60 49 44 44 44 41 40 40 39 44 33 32 41 31 24 19 19 17 14
350 13 29 49 59 46 39 65 69 72 66 54 71 85 101 116 118 145 167 164 163 162 151 152 143 118 121 100 78 71 76 69 59 60 62 61 52 51 53 51 47 46 43 44 42 38 35 33 27 25 23 21 19 17
346 9 30 33 17 19 54 68 70 77 99 93 105 154 45 193 127 111 142 170 167 152 130 146 123 88 98 83 70 70 75 61 55 58 56 62 55 55 55 50 45 44 44 46 43 39 34 33 38 41 35 30 23 24
353 0 29 15 22 40 55 72 60 73 103 105 119 104 151 160 159 112 80 154 148 128 79 106 102 76 66 85 66 62 70 65 55 53 52 54 55 55 55 49 48 44 42 44 42 41 38 36 38 37 37 35 34 37
341 5 9 7 28 30 69 77 67 86 123 100 106 354 268 232 212 11 61 82 110 119 94 91 82 75 71 69 61 65 64 52 51 52 49 48 51 56 60 53 50 47 44 42 43 40 37 37 36 33 34 35 34 36